Flag for Italy Weather past 2 weeks in Firenze, Italy

Now
43 °F

Clear.


Feels Like: 43 °F
Forecast: 38 / 56 °F
Wind: 1 mph from East

Location: Florence / Peretola

Current Time: Dec 21, 2014 at 9:29:26 PM

Latest Report: Dec 21, 2014 at 8:50 PM


Visibility: 10 mi

Pressure: 30.42 "Hg

Humidity: 93%

Dew point: 41 °F

Location of FirenzeLocation

Historic Weather in Firenze — Graph

°F

Firenze temperature yesterday

Maximum temperature yesterday: 64 °F (at 3:20 PM)
Minimum temperature yesterday: 50 °F (at 3:50 AM)
Average temperature yesterday: 54 °F

Past Weeks' High & Low Weather Summary

 TemperatureHumidityPressure
High64 °F (Dec 20, 3:20 PM)100% (Dec 7, 4:50 AM)30.42 "Hg (Dec 7, 4:50 AM)
Low28 °F (Dec 12, 6:20 AM)31% (Dec 10, 1:20 PM)29.74 "Hg (Dec 16, 3:20 PM)
Average50 °F84%30.08 "Hg
* Reported Dec 6 8:20 PM — Dec 21 8:20 PM, Firenze, Weather by CustomWeather, © 2014

Note: Actual official high and low records may vary slightly from our data, if they occured in-between our weather recording intervals... More about our weather records

Advertising

Firenze weather history for previous 24 hours

 ConditionsComfort  
Time TempWeatherWind HumidityBarometerVisibility
8:20 PM
Dec 21
45 °FClear.2 mph87%30.42 "Hg10 mi
7:50 PM45 °FClear.2 mph87%30.42 "Hg10 mi
7:20 PM46 °FClear.1 mph87%30.42 "Hg10 mi
6:50 PM48 °FClear.No wind87%30.39 "Hg10 mi
6:20 PM48 °FClear.2 mph87%30.39 "Hg10 mi
5:50 PM48 °FClear.3 mph87%30.36 "Hg10 mi
5:20 PM52 °FClear.2 mph77%30.36 "Hg10 mi
4:50 PM55 °FClear.No wind72%30.36 "Hg10 mi
4:20 PM59 °FSunny.1 mph59%30.36 "Hg10 mi
3:50 PM63 °FSunny.1 mph52%30.33 "Hg10 mi
3:20 PM61 °FSunny.1 mph63%30.33 "Hg10 mi
2:50 PM61 °FSunny.1 mph59%30.33 "Hg10 mi
2:20 PM61 °FSunny.1 mph59%30.33 "Hg10 mi
1:50 PM59 °FSunny.2 mph63%30.33 "Hg10 mi
1:20 PM61 °FSunny.No wind63%30.33 "Hg10 mi
12:50 PM59 °FSunny.2 mph68%30.33 "Hg10 mi
12:20 PM57 °FClear.2 mph77%30.33 "Hg5 mi
11:50 AM55 °FClear.3 mph82%30.33 "Hg5 mi
11:20 AM54 °FClear.3 mph88%30.33 "Hg4 mi
10:50 AM52 °FFog.3 mph94%30.33 "Hg3 mi
10:20 AM52 °FFog.5 mph100%30.33 "Hg3 mi
9:50 AM50 °FFog.No wind100%30.30 "Hg3 mi
9:20 AM50 °FFog.2 mph100%30.30 "Hg2 mi
8:50 AM46 °FFog.2 mph100%30.30 "Hg2 mi
8:20 AM43 °FFog.2 mph100%30.27 "Hg0 mi
7:50 AM45 °FFog.1 mph100%30.27 "Hg0 mi
7:20 AM45 °FPassing clouds.1 mph100%30.24 "Hg2 mi
6:50 AM46 °FFog.2 mph100%30.24 "Hg4 mi
6:20 AM48 °FFog.No wind100%30.21 "Hg5 mi
5:50 AM50 °FPartly cloudy.No wind100%30.21 "Hg5 mi
5:20 AM50 °FPassing clouds.1 mph94%30.21 "Hg5 mi
4:50 AM50 °FPassing clouds.No wind94%30.21 "Hg5 mi
4:20 AM50 °FPassing clouds.No wind100%30.21 "Hg5 mi
3:50 AM52 °FPassing clouds.2 mph94%30.21 "HgN/A
3:20 AM52 °FPassing clouds.2 mph94%30.21 "HgN/A
2:50 AM52 °FPassing clouds.No wind94%30.21 "HgN/A
2:20 AM52 °FPassing clouds.2 mph94%30.21 "HgN/A
1:50 AM54 °FPassing clouds.2 mph88%30.18 "HgN/A
1:20 AM52 °FPassing clouds.2 mph94%30.18 "HgN/A
12:50 AM52 °FPassing clouds.1 mph94%30.18 "HgN/A
12:20 AM52 °FPassing clouds.No wind94%30.18 "HgN/A
11:50 PM
Dec 20
52 °FPassing clouds.2 mph94%30.18 "HgN/A
11:20 PM54 °FPassing clouds.3 mph88%30.18 "HgN/A
10:50 PM52 °FPassing clouds.2 mph94%30.18 "HgN/A
10:20 PM52 °FPassing clouds.2 mph94%30.18 "HgN/A
9:50 PM54 °FPassing clouds.2 mph88%30.18 "HgN/A
9:20 PM52 °FPassing clouds.3 mph94%30.18 "HgN/A
Weather by CustomWeather, © 2014

See weather overviewHow to use our weather pages